Location: Rowland
(34.5359°N, 79.2929°W)
Time: 17:41:27
(UTC+00:00)

S-56A Canister/Altair - Pass Details

Date: 08 October 2022
Orbit: 638 x 2494 km, 38.9° (Epoch: 06 December)

Event Time Altitude Azimuth Distance (km) Brightness Sun altitude
Exits shadow 06:52:43 23° 73° (ENE) 2,652 10.5 -52.0°
Drops below altitude 10° 06:55:10 10° 77° (ENE) 3,341 11.1 -51.7°
Sets 06:57:36 0° 80° (E) 4,098 11.7 -51.3°
